"Period start","avg(HW err(1)/warn(2) (#))","avg(Visibility (m))","avg(Weather code (#))","avg(Precip intensity (mm/h))","min(HW err(1)/warn(2) (#))","max(HW err(1)/warn(2) (#))","std(HW err(1)/warn(2) (#))","med(HW err(1)/warn(2) (#))","min(Visibility (m))","max(Visibility (m))","std(Visibility (m))","med(Visibility (m))","min(Weather code (#))","max(Weather code (#))","std(Weather code (#))","med(Weather code (#))","min(Precip intensity (mm/h))","max(Precip intensity (mm/h))","std(Precip intensity (mm/h))","med(Precip intensity (mm/h))"
2013-08-14 00:00:00,2,14242,52,0.51,2,2,0,2,11641,15571,1075,14662,51,52,0,52,0.40,0.90,0.14,0.47
2013-08-14 00:10:00,2,15538,51,0.41,2,2,0,2,13472,17455,1223,15277,51,52,0,51,0.25,0.80,0.15,0.38
2013-08-14 00:20:00,2,20820,51,0.20,2,2,0,2,15206,28067,3765,20280,51,51,0,51,0.10,0.30,0.05,0.20
2013-08-14 00:30:00,2,19790,51,0.47,2,2,0,2,14911,25045,2998,19736,51,52,0,51,0.15,0.70,0.20,0.48
2013-08-14 00:40:00,2,19536,52,0.47,2,2,0,2,16100,24828,2395,19732,51,52,0,52,0.30,0.60,0.10,0.50
2013-08-14 00:50:00,2,19324,52,0.95,2,2,0,2,14184,25386,3301,19187,52,52,0,52,0.40,1.45,0.29,0.93
2013-08-14 01:00:00,2,21077,51,0.36,2,2,0,2,17441,27772,3420,19420,51,52,0,51,0.15,0.75,0.17,0.30
2013-08-14 01:10:00,2,21144,51,0.28,2,2,0,2,18350,26723,2426,20516,51,51,0,51,0.10,0.45,0.11,0.30
2013-08-14 01:20:00,2,29405,51,0.17,2,2,0,2,21164,43775,6777,25858,51,51,0,51,0.05,0.50,0.12,0.15
2013-08-14 01:30:00,2,36877,51,0.11,2,2,0,2,28914,46762,6145,36071,51,51,0,51,0.05,0.20,0.05,0.10
2013-08-14 01:40:00,2,26288,54,0.07,2,2,0,2,22881,33413,3298,25836,51,61,5,51,0.00,0.20,0.07,0.05
2013-08-14 01:50:00,2,24208,51,0.12,2,2,0,2,19645,31027,2846,24011,51,51,0,51,0.05,0.20,0.04,0.10
2013-08-14 02:00:00,2,24219,32,0.02,2,2,0,2,19108,31374,3744,24458,0,61,26,51,0.00,0.05,0.02,0.00
2013-08-14 02:10:00,2,19758,41,0.04,2,2,0,2,17549,23198,2000,19260,0,61,27,56,0.00,0.10,0.04,0.05
2013-08-14 02:20:00,2,19864,12,0.00,2,2,0,2,15843,26693,3461,18619,0,61,24,0,0.00,0.00,0.00,0.00
2013-08-14 02:30:00,2,19434,0,0.00,2,2,0,2,16469,22287,1599,18888,0,0,0,0,0.00,0.00,0.00,0.00
2013-08-14 02:40:00,2,18151,0,0.00,2,2,0,2,16166,20442,1279,18158,0,0,0,0,0.00,0.00,0.00,0.00
2013-08-14 02:50:00,2,17264,0,0.00,2,2,0,2,14951,19269,1462,17067,0,0,0,0,0.00,0.00,0.00,0.00
2013-08-14 03:00:00,2,19210,0,0.00,2,2,0,2,16500,23554,2129,19067,0,0,0,0,0.00,0.00,0.00,0.00
2013-08-14 03:10:00,2,16323,0,0.00,2,2,0,2,12820,20179,2365,16804,0,0,0,0,0.00,0.00,0.00,0.00
2013-08-14 03:20:00,2,19538,0,0.00,2,2,0,2,18360,21234,1041,19522,0,0,0,0,0.00,0.00,0.00,0.00
2013-08-14 03:30:00,2,17103,0,0.00,2,2,0,2,8842,20159,3501,18428,0,0,0,0,0.00,0.00,0.00,0.00
2013-08-14 03:40:00,2,9859,0,0.00,2,2,0,2,6415,12952,2078,9612,0,0,0,0,0.00,0.00,0.00,0.00
2013-08-14 03:50:00,2,8652,4,0.00,2,2,0,2,6625,10612,1393,8411,0,10,5,0,0.00,0.00,0.00,0.00
2013-08-14 04:00:00,2,18777,7,0.00,2,2,0,2,11580,24995,4321,19803,0,10,5,10,0.00,0.00,0.00,0.00
2013-08-14 04:10:00,2,13254,0,0.00,2,2,0,2,9763,17198,2341,13138,0,0,0,0,0.00,0.00,0.00,0.00
2013-08-14 04:20:00,2,9701,0,0.00,2,2,0,2,6597,14016,2253,9729,0,0,0,0,0.00,0.00,0.00,0.00
2013-08-14 04:30:00,2,8408,10,0.00,2,2,0,2,6739,9969,1112,8904,10,10,0,10,0.00,0.00,0.00,0.00
2013-08-14 04:40:00,2,12077,10,0.00,2,2,0,2,8180,18308,3155,11428,10,10,0,10,0.00,0.00,0.00,0.00
2013-08-14 04:50:00,2,8744,3,0.00,2,2,0,2,6797,11009,1258,8770,0,10,5,0,0.00,0.00,0.00,0.00
2013-08-14 05:00:00,2,6084,32,0.08,2,2,0,2,3539,8837,1921,5954,10,61,23,30,0.00,0.35,0.13,0.00
2013-08-14 05:10:00,2,8565,10,0.00,2,2,0,2,6506,12629,1670,8306,10,10,0,10,0.00,0.00,0.00,0.00
2013-08-14 05:20:00,2,9566,10,0.00,2,2,0,2,6179,13917,2418,9183,10,10,0,10,0.00,0.00,0.00,0.00
2013-08-14 05:30:00,2,18810,5,0.00,2,2,0,2,8017,23917,4021,19358,0,10,5,5,0.00,0.00,0.00,0.00
2013-08-14 05:40:00,2,5818,5,0.00,2,2,0,2,3956,7546,1136,5636,0,10,5,5,0.00,0.00,0.00,0.00
2013-08-14 05:50:00,2,4404,10,0.00,2,2,0,2,2952,5521,782,4556,10,10,0,10,0.00,0.00,0.00,0.00
2013-08-14 06:00:00,2,3487,32,0.14,2,2,0,2,2770,4769,587,3300,10,61,23,30,0.00,0.40,0.15,0.07
2013-08-14 06:10:00,2,4018,51,0.17,2,2,0,2,2961,4984,552,4074,51,51,0,51,0.05,0.40,0.09,0.15
2013-08-14 06:20:00,2,3918,58,0.47,2,2,0,2,2286,5552,984,3584,51,61,5,61,0.20,0.90,0.21,0.45
2013-08-14 06:30:00,2,4320,47,0.42,2,2,0,2,3591,6790,897,4001,10,52,12,51,0.00,1.00,0.35,0.33
2013-08-14 06:40:00,2,3798,45,0.23,2,2,0,2,3113,4789,507,3822,10,61,18,51,0.00,0.50,0.19,0.17
2013-08-14 06:50:00,2,4209,51,0.42,2,2,0,2,2647,5433,931,4428,51,51,0,51,0.15,0.90,0.21,0.33
2013-08-14 07:00:00,2,3996,55,0.92,2,2,0,2,2958,5090,565,4042,51,61,5,52,0.30,2.55,0.64,0.83
2013-08-14 07:10:00,2,4056,51,0.34,2,2,0,2,3110,5939,719,3912,51,52,0,51,0.15,0.60,0.14,0.35
2013-08-14 07:20:00,2,4073,58,0.34,2,2,0,2,2663,6237,1253,3627,51,61,5,61,0.05,0.70,0.21,0.35
2013-08-14 07:30:00,2,4951,10,0.00,2,2,0,2,3527,6388,871,4878,10,10,0,10,0.00,0.00,0.00,0.00
2013-08-14 07:40:00,2,4013,29,0.20,2,2,0,2,1944,5788,1243,4150,10,61,23,10,0.00,0.75,0.26,0.00
2013-08-14 07:50:00,2,7723,22,0.02,2,2,0,2,4613,9903,1542,8008,10,51,19,10,0.00,0.20,0.06,0.00
2013-08-14 08:00:00,2,4656,20,0.07,2,2,0,2,2271,8689,1870,4218,10,61,20,10,0.00,0.55,0.17,0.00
2013-08-14 08:10:00,2,5232,52,0.42,2,2,0,2,3599,8903,1450,4652,51,61,3,51,0.00,2.50,0.70,0.17
2013-08-14 08:20:00,2,3647,54,0.71,2,2,0,2,3237,4425,348,3473,51,61,4,52,0.10,2.60,0.70,0.40
2013-08-14 08:30:00,2,4310,56,0.49,2,2,0,2,3777,5314,501,4246,51,61,5,56,0.05,1.15,0.36,0.45
2013-08-14 08:40:00,2,3656,51,0.72,2,2,0,2,2822,4186,399,3660,51,52,0,51,0.45,1.20,0.28,0.57
2013-08-14 08:50:00,2,3324,52,0.81,2,2,0,2,2695,4464,653,3026,51,52,0,52,0.30,1.60,0.42,0.75
2013-08-14 09:00:00,2,4684,55,0.21,2,2,0,2,2821,7799,1635,4280,51,61,5,52,0.00,0.65,0.22,0.15
2013-08-14 09:10:00,2,3588,51,0.34,2,2,0,2,2634,4709,585,3334,51,51,0,51,0.05,0.80,0.25,0.25
2013-08-14 09:20:00,2,6220,10,0.00,2,2,0,2,5013,8041,1002,6222,10,10,0,10,0.00,0.00,0.00,0.00
2013-08-14 09:30:00,2,4577,10,0.00,2,2,0,2,2818,7529,1344,4520,10,10,0,10,0.00,0.00,0.00,0.00
2013-08-14 09:40:00,2,4248,10,0.00,2,2,0,2,2931,6243,1043,4168,10,10,0,10,0.00,0.00,0.00,0.00
2013-08-14 09:50:00,2,4654,10,0.00,2,2,0,2,2375,7380,1509,4526,10,10,0,10,0.00,0.00,0.00,0.00
2013-08-14 10:00:00,2,8876,10,0.00,2,2,0,2,3000,16637,4163,8528,10,10,0,10,0.00,0.00,0.00,0.00
2013-08-14 10:10:00,2,3346,10,0.00,2,2,0,2,2455,4682,658,3144,10,10,0,10,0.00,0.00,0.00,0.00
2013-08-14 10:20:00,2,2872,24,0.20,2,2,0,2,2237,3695,431,2765,10,61,22,10,0.00,0.80,0.31,0.00
2013-08-14 10:30:00,2,2598,52,0.99,2,2,0,2,1745,3268,517,2590,51,52,0,52,0.30,1.85,0.45,0.97
2013-08-14 10:40:00,2,2770,52,1.18,2,2,0,2,2118,3639,498,2732,52,52,0,52,0.45,2.70,0.58,1.00
2013-08-14 10:50:00,2,2826,52,1.01,2,2,0,2,2067,3830,447,2758,52,52,0,52,0.60,1.95,0.37,0.92
2013-08-14 11:00:00,2,2642,52,1.52,2,2,0,2,2092,3410,461,2560,52,52,0,52,0.50,2.55,0.70,1.73
2013-08-14 11:10:00,2,3112,52,1.45,2,2,0,2,2213,4980,695,3060,52,52,0,52,0.55,3.00,0.69,1.38
2013-08-14 11:20:00,2,2891,58,1.39,2,2,0,2,2334,3222,249,2876,52,61,4,61,0.65,2.15,0.39,1.33
2013-08-14 11:30:00,2,3777,52,1.14,2,2,0,2,3342,4285,344,3773,52,52,0,52,0.80,1.80,0.33,1.05
2013-08-14 11:40:00,2,3574,52,1.62,2,2,0,2,3009,4295,381,3500,52,52,0,52,0.60,2.35,0.57,1.62
2013-08-14 11:50:00,2,3888,52,0.92,2,2,0,2,3324,4712,365,3878,51,52,0,52,0.30,1.55,0.39,0.80
2013-08-14 12:00:00,2,4239,51,0.48,2,2,0,2,3205,5179,545,4312,51,51,0,51,0.20,0.95,0.23,0.53
2013-08-14 12:10:00,2,4212,51,0.40,2,2,0,2,3491,5582,547,4123,51,51,0,51,0.10,0.95,0.25,0.35
2013-08-14 12:20:00,2,3971,51,0.60,2,2,0,2,2945,4722,515,4070,51,52,0,51,0.20,1.10,0.27,0.60
2013-08-14 12:30:00,2,4245,51,0.51,2,2,0,2,3593,4790,433,4448,51,52,0,51,0.30,0.90,0.23,0.40
2013-08-14 12:40:00,2,4268,51,0.60,2,2,0,2,3582,6071,749,3854,51,52,0,51,0.35,0.80,0.15,0.60
2013-08-14 12:50:00,2,5003,51,0.32,2,2,0,2,3578,6207,930,4896,51,52,0,51,0.05,0.65,0.19,0.33
2013-08-14 13:00:00,2,5661,55,0.32,2,2,0,2,4323,7209,878,5465,51,61,5,51,0.00,1.40,0.40,0.15
2013-08-14 13:10:00,2,5859,30,0.09,2,2,0,2,4606,7002,718,5786,10,51,20,30,0.00,0.35,0.11,0.05
2013-08-14 13:20:00,2,5473,10,0.00,2,2,0,2,4728,6646,566,5262,10,10,0,10,0.00,0.00,0.00,0.00
2013-08-14 13:30:00,2,5077,51,0.21,2,2,0,2,3929,6175,732,5276,10,61,14,51,0.00,0.50,0.15,0.15
2013-08-14 13:40:00,2,6262,51,0.12,2,2,0,2,4894,7594,714,6058,51,51,0,51,0.05,0.20,0.06,0.10
2013-08-14 13:50:00,2,6082,14,0.01,2,2,0,2,5133,7918,885,5917,10,51,12,10,0.00,0.05,0.02,0.00
2013-08-14 14:00:00,2,5408,10,0.00,2,2,0,2,4487,6239,533,5327,10,10,0,10,0.00,0.00,0.00,0.00
2013-08-14 14:10:00,2,4316,10,0.00,2,2,0,2,3794,5153,435,4396,10,10,0,10,0.00,0.00,0.00,0.00
2013-08-14 14:20:00,2,4383,24,0.12,2,2,0,2,3162,5901,847,4243,10,51,18,10,0.00,0.50,0.18,0.00
2013-08-14 14:30:00,2,4371,51,0.32,2,2,0,2,3713,5285,485,4428,51,51,0,51,0.10,0.90,0.21,0.28
2013-08-14 14:40:00,2,3960,51,0.40,2,2,0,2,2989,5047,549,3936,51,51,0,51,0.05,0.75,0.22,0.47
2013-08-14 14:50:00,2,3700,51,0.55,2,2,0,2,2952,4474,418,3681,51,52,0,51,0.15,0.85,0.23,0.55
2013-08-14 15:00:00,2,3806,52,0.65,2,2,0,2,3087,4772,492,3787,51,52,0,52,0.25,1.30,0.34,0.65
2013-08-14 15:10:00,2,3960,51,0.54,2,2,0,2,3174,5197,565,3838,51,52,0,51,0.25,0.85,0.18,0.50
2013-08-14 15:20:00,2,4060,51,0.61,2,2,0,2,3640,4767,378,3884,51,52,0,51,0.20,1.05,0.27,0.65
2013-08-14 15:30:00,2,4199,51,0.40,2,2,0,2,3627,4886,406,4142,51,51,0,51,0.25,0.60,0.10,0.38
2013-08-14 15:40:00,2,4676,51,0.38,2,2,0,2,3635,5725,741,4553,51,51,0,51,0.15,0.65,0.15,0.38
2013-08-14 15:50:00,2,4292,51,0.49,2,2,0,2,3971,4571,196,4306,51,51,0,51,0.35,0.70,0.12,0.47
2013-08-14 16:00:00,2,4540,51,0.39,2,2,0,2,3869,5553,460,4464,51,51,0,51,0.20,0.70,0.15,0.35
2013-08-14 16:10:00,2,4484,51,0.47,2,2,0,2,3708,6355,755,4232,51,52,0,51,0.00,0.95,0.30,0.45
2013-08-14 16:20:00,2,4106,52,0.83,2,2,0,2,3417,4994,519,4030,52,52,0,52,0.60,1.30,0.24,0.75
2013-08-14 16:30:00,2,3942,52,0.72,2,2,0,2,3274,4642,396,3890,51,52,0,52,0.30,1.35,0.30,0.68
2013-08-14 16:40:00,2,3847,52,0.74,2,2,0,2,3191,4267,301,3839,51,52,0,52,0.35,1.40,0.31,0.65
2013-08-14 16:50:00,2,3527,52,0.80,2,2,0,2,3177,4315,323,3484,52,52,0,52,0.40,1.40,0.29,0.75
2013-08-14 17:00:00,2,3578,52,0.64,2,2,0,2,2936,4102,315,3570,51,52,0,52,0.30,0.95,0.23,0.60
2013-08-14 17:10:00,2,3540,52,1.32,2,2,0,2,2788,4095,372,3552,51,52,0,52,0.65,1.95,0.47,1.38
2013-08-14 17:20:00,2,4060,52,0.67,2,2,0,2,3527,4768,337,4039,51,52,0,52,0.30,1.35,0.30,0.60
2013-08-14 17:30:00,2,4525,51,0.29,2,2,0,2,3461,5806,681,4446,51,51,0,51,0.10,0.55,0.16,0.25
2013-08-14 17:40:00,2,4356,51,0.18,2,2,0,2,3196,5448,593,4359,51,51,0,51,0.05,0.35,0.10,0.17
2013-08-14 17:50:00,2,5987,26,0.04,2,2,0,2,4378,8094,1070,5942,10,51,20,10,0.00,0.20,0.07,0.00
2013-08-14 18:00:00,2,5437,10,0.00,2,2,0,2,4745,6494,588,5302,10,10,0,10,0.00,0.00,0.00,0.00
2013-08-14 18:10:00,2,6293,10,0.00,2,2,0,2,4390,9426,1432,6066,10,10,0,10,0.00,0.00,0.00,0.00
2013-08-14 18:20:00,2,9238,10,0.00,2,2,0,2,7067,11305,1312,9192,10,10,0,10,0.00,0.00,0.00,0.00
2013-08-14 18:30:00,2,7099,13,0.01,2,2,0,2,5497,8378,924,7346,10,40,9,10,0.00,0.15,0.05,0.00
2013-08-14 18:40:00,2,5998,25,0.03,2,2,0,2,5238,7576,692,5740,10,51,19,10,0.00,0.25,0.07,0.00
2013-08-14 18:50:00,2,5249,10,0.00,2,2,0,2,4368,6413,680,5088,10,10,0,10,0.00,0.00,0.00,0.00
2013-08-14 19:00:00,2,6810,10,0.00,2,2,0,2,5399,8172,832,6888,10,10,0,10,0.00,0.00,0.00,0.00
2013-08-14 19:10:00,2,8090,10,0.00,2,2,0,2,5523,10202,1299,7820,10,10,0,10,0.00,0.00,0.00,0.00
2013-08-14 19:20:00,2,8462,10,0.00,2,2,0,2,5966,10535,1231,8617,10,10,0,10,0.00,0.00,0.00,0.00
2013-08-14 19:30:00,2,10080,24,0.02,2,2,0,2,7140,11698,1455,10636,10,51,18,10,0.00,0.05,0.02,0.00
2013-08-14 19:40:00,2,13216,26,0.01,2,2,0,2,10716,15140,1339,13419,10,51,20,10,0.00,0.05,0.02,0.00
2013-08-14 19:50:00,2,12867,0,0.00,2,2,0,2,10509,14932,1284,12818,0,0,0,0,0.00,0.00,0.00,0.00
2013-08-14 20:00:00,2,21209,0,0.00,2,2,0,2,9260,34736,8922,18215,0,0,0,0,0.00,0.00,0.00,0.00
2013-08-14 20:10:00,2,23247,0,0.00,2,2,0,2,15711,33553,6252,21500,0,0,0,0,0.00,0.00,0.00,0.00
2013-08-14 20:20:00,2,20680,0,0.00,2,2,0,2,15143,27871,3738,19251,0,0,0,0,0.00,0.00,0.00,0.00
2013-08-14 20:30:00,2,21386,0,0.00,2,2,0,2,9209,32742,7911,20274,0,0,0,0,0.00,0.00,0.00,0.00
2013-08-14 20:40:00,2,11034,0,0.00,2,2,0,2,7165,15992,2872,11086,0,0,0,0,0.00,0.00,0.00,0.00
2013-08-14 20:50:00,2,13894,0,0.00,2,2,0,2,10593,17216,2291,13195,0,0,0,0,0.00,0.00,0.00,0.00
2013-08-14 21:00:00,2,12246,0,0.00,2,2,0,2,10549,13531,957,12196,0,0,0,0,0.00,0.00,0.00,0.00
2013-08-14 21:10:00,2,8612,4,0.00,2,2,0,2,6850,12875,1831,8130,0,10,5,0,0.00,0.00,0.00,0.00
2013-08-14 21:20:00,2,7764,10,0.00,2,2,0,2,4601,11242,2069,7932,10,10,0,10,0.00,0.00,0.00,0.00
2013-08-14 21:30:00,2,4995,10,0.00,2,2,0,2,3335,5862,865,5384,10,10,0,10,0.00,0.00,0.00,0.00
2013-08-14 21:40:00,2,5240,10,0.00,2,2,0,2,3071,7551,1465,5158,10,10,0,10,0.00,0.00,0.00,0.00
2013-08-14 21:50:00,2,6372,10,0.00,2,2,0,2,3878,9725,2125,6262,10,10,0,10,0.00,0.00,0.00,0.00
2013-08-14 22:00:00,2,4892,10,0.00,2,2,0,2,2136,8261,2222,4513,10,10,0,10,0.00,0.00,0.00,0.00
2013-08-14 22:10:00,2,4173,10,0.00,2,2,0,2,2926,5462,960,4298,10,10,0,10,0.00,0.00,0.00,0.00
2013-08-14 22:20:00,2,3681,32,0.14,2,2,0,2,2457,4927,826,3482,10,61,23,30,0.00,0.70,0.23,0.00
2013-08-14 22:30:00,2,2980,14,0.01,2,2,0,2,2135,3862,604,3049,10,51,12,10,0.00,0.10,0.03,0.00
2013-08-14 22:40:00,2,3154,10,0.00,2,2,0,2,2358,4686,664,2874,10,10,0,10,0.00,0.00,0.00,0.00
2013-08-14 22:50:00,2,4482,10,0.00,2,2,0,2,3351,5702,795,4345,10,10,0,10,0.00,0.00,0.00,0.00
2013-08-14 23:00:00,2,3586,10,0.00,2,2,0,2,2943,4814,504,3438,10,10,0,10,0.00,0.00,0.00,0.00
2013-08-14 23:10:00,2,3993,10,0.00,2,2,0,2,3555,4474,289,3926,10,10,0,10,0.00,0.00,0.00,0.00
2013-08-14 23:20:00,2,5056,10,0.00,2,2,0,2,3585,8163,1407,4734,10,10,0,10,0.00,0.00,0.00,0.00
2013-08-14 23:30:00,2,5329,10,0.00,2,2,0,2,3277,7203,1198,5660,10,10,0,10,0.00,0.00,0.00,0.00
2013-08-14 23:40:00,2,5132,10,0.00,2,2,0,2,3729,7192,1103,4790,10,10,0,10,0.00,0.00,0.00,0.00
2013-08-14 23:50:00,2,5624,10,0.00,2,2,0,2,3369,8594,1899,5385,10,10,0,10,0.00,0.00,0.00,0.00
